| time (UTC) | temp C | wind direction | speed KPH | gust KPH | rain 1hr cm | rain 24hr cm | rain mn cm | humidity % | barometer mb |
| 20260510203506 | 16 | 0.0 | 0.0 | 0.00 | 0.25 | 0.00 | 75 | 1012.9 | |
| 20260510203004 | 16 | 0.0 | 0.0 | 0.00 | 0.25 | 0.00 | 71 | 1012.8 | |
| 20260510202504 | 16 | 0.0 | 0.0 | 0.00 | 0.28 | 0.00 | 66 | 1012.8 | |
| 20260510202002 | 16 | 0.0 | 0.0 | 0.00 | 0.28 | 0.00 | 65 | 1012.7 | |
| 20260510201511 | 16 | 0.0 | 0.0 | 0.00 | 0.30 | 0.00 | 64 | 1012.5 | |
| 20260510201005 | 16 | 0.0 | 0.0 | 0.00 | 0.33 | 0.00 | 63 | 1012.4 | |
| 20260510200504 | 17 | 0.0 | 0.0 | 0.00 | 0.36 | 0.00 | 60 | 1012.4 | |
| 20260510200014 | 17 | 0.0 | 0.0 | 0.00 | 0.38 | 0.00 | 60 | 1012.3 | |
| 20260510195504 | 17 | 0.0 | 0.0 | 0.00 | 0.41 | 0.00 | 61 | 1012.5 | |
| 20260510195004 | 17 | 0.0 | 0.0 | 0.00 | 0.46 | 0.00 | 59 | 1012.3 | |
| 20260510194526 | 18 | 0.0 | 0.0 | 0.00 | 0.48 | 0.00 | 57 | 1012.2 | |
| 20260510194002 | 18 | 0.0 | 0.0 | 0.00 | 0.48 | 0.00 | 55 | 1012.1 | |
| 20260510193504 | 19 | 0.0 | 0.0 | 0.00 | 0.51 | 0.00 | 54 | 1012.2 | |
| 20260510193004 | 20 | 0.0 | 0.0 | 0.00 | 0.53 | 0.00 | 55 | 1012.2 | |
| 20260510192505 | 20 | 0.0 | 0.0 | 0.00 | 0.58 | 0.00 | 55 | 1012.2 | |
| 20260510192002 | 20 | 0.0 | 0.0 | 0.00 | 0.61 | 0.00 | 53 | 1012.2 | |
| 20260510191509 | 20 | 0.0 | 0.0 | 0.00 | 0.64 | 0.00 | 54 | 1012.0 | |
| 20260510191004 | 21 | 0.0 | 0.0 | 0.00 | 0.64 | 0.00 | 57 | 1012.1 | |
| 20260510190504 | 21 | 0.0 | 0.0 | 0.00 | 0.66 | 0.00 | 56 | 1012.1 | |
| 20260510190030 | 21 | 0.0 | 0.0 | 0.00 | 0.66 | 0.00 | 57 | 1012.1 | |
| 20260510185505 | 20 | 0.0 | 0.0 | 0.00 | 0.69 | 0.00 | 59 | 1012.1 | |
| 20260510185003 | 20 | 0.0 | 0.0 | 0.00 | 0.69 | 0.00 | 57 | 1012.2 | |
| 20260510184515 | 20 | 0.0 | 0.0 | 0.00 | 0.69 | 0.00 | 55 | 1012.1 | |
| 20260510184008 | 20 | 0.0 | 0.0 | 0.00 | 0.69 | 0.00 | 55 | 1012.2 | |
| 20260510183518 | 20 | 0.0 | 0.0 | 0.00 | 0.69 | 0.00 | 54 | 1012.2 | |
| 20260510183004 | 21 | 0.0 | 0.0 | 0.00 | 0.69 | 0.00 | 59 | 1012.3 | |
| 20260510182507 | 20 | 0.0 | 0.0 | 0.00 | 0.69 | 0.00 | 57 | 1012.3 | |
| 20260510182003 | 20 | 0.0 | 0.0 | 0.00 | 0.69 | 0.00 | 57 | 1012.2 | |
| 20260510181505 | 20 | 0.0 | 0.0 | 0.00 | 0.69 | 0.00 | 60 | 1012.2 | |
| 20260510181002 | 20 | 0.0 | 0.0 | 0.00 | 0.69 | 0.00 | 59 | 1012.1 | |
| 20260510180506 | 20 | 0.0 | 0.0 | 0.00 | 0.69 | 0.00 | 59 | 1012.2 | |
| 20260510180013 | 20 | 0.0 | 0.0 | 0.00 | 0.69 | 0.00 | 55 | 1012.1 | |
| 20260510175503 | 20 | 0.0 | 0.0 | 0.00 | 0.69 | 0.00 | 59 | 1012.2 | |
| 20260510175003 | 20 | 0.0 | 0.0 | 0.00 | 0.69 | 0.00 | 57 | 1012.2 | |
| 20260510174516 | 20 | 0.0 | 0.0 | 0.00 | 0.69 | 0.00 | 58 | 1012.2 | |
| 20260510174005 | 20 | 0.0 | 0.0 | 0.00 | 0.69 | 0.00 | 64 | 1012.2 | |
| 20260510173506 | 19 | 0.0 | 0.0 | 0.00 | 0.69 | 0.00 | 61 | 1012.0 | |
| 20260510173025 | 19 | 0.0 | 0.0 | 0.00 | 0.69 | 0.00 | 61 | 1012.0 | |
| 20260510172508 | 19 | 0.0 | 0.0 | 0.00 | 0.69 | 0.00 | 62 | 1012.2 | |
| 20260510172003 | 19 | 0.0 | 0.0 | 0.00 | 0.69 | 0.00 | 58 | 1012.1 | |
| 20260510171526 | 19 | 0.0 | 0.0 | 0.00 | 0.69 | 0.00 | 63 | 1012.3 | |
| 20260510171003 | 20 | 0.0 | 0.0 | 0.00 | 0.69 | 0.00 | 60 | 1012.3 | |
| 20260510170505 | 20 | 0.0 | 0.0 | 0.00 | 0.69 | 0.00 | 60 | 1012.4 | |
| 20260510170010 | 20 | 0.0 | 0.0 | 0.00 | 0.69 | 0.00 | 66 | 1012.4 | |
| 20260510165505 | 19 | 0.0 | 0.0 | 0.00 | 0.69 | 0.00 | 65 | 1012.3 | |
| 20260510165004 | 18 | 0.0 | 0.0 | 0.00 | 0.69 | 0.00 | 69 | 1012.3 | |
| 20260510164518 | 18 | 0.0 | 0.0 | 0.00 | 0.69 | 0.00 | 70 | 1012.3 | |
| 20260510164008 | 18 | 0.0 | 0.0 | 0.00 | 0.69 | 0.00 | 64 | 1012.4 | |
| 20260510163504 | 18 | 0.0 | 0.0 | 0.00 | 0.71 | 0.00 | 66 | 1012.5 | |
| 20260510163023 | 18 | 0.0 | 0.0 | 0.00 | 0.71 | 0.00 | 65 | 1012.5 | |
| 20260510162510 | 18 | 0.0 | 0.0 | 0.00 | 0.71 | 0.00 | 63 | 1012.5 | |
| 20260510162009 | 18 | 0.0 | 0.0 | 0.00 | 0.71 | 0.00 | 63 | 1012.6 | |
| 20260510161527 | 18 | 0.0 | 0.0 | 0.00 | 0.71 | 0.00 | 62 | 1012.6 | |
| 20260510161004 | 18 | 0.0 | 0.0 | 0.00 | 0.71 | 0.00 | 65 | 1012.6 | |
| 20260510160504 | 18 | 0.0 | 0.0 | 0.00 | 0.71 | 0.00 | 63 | 1012.5 | |
| 20260510160008 | 18 | 0.0 | 0.0 | 0.00 | 0.71 | 0.00 | 65 | 1012.5 | |
| 20260510155503 | 18 | 0.0 | 0.0 | 0.00 | 0.71 | 0.00 | 66 | 1012.7 | |
| 20260510155003 | 18 | 0.0 | 0.0 | 0.00 | 0.71 | 0.00 | 71 | 1012.8 | |
| 20260510154514 | 18 | 0.0 | 0.0 | 0.00 | 0.71 | 0.00 | 70 | 1012.8 | |
| 20260510154004 | 18 | 0.0 | 0.0 | 0.00 | 0.71 | 0.00 | 68 | 1012.8 | |
| 20260510153504 | 17 | 0.0 | 0.0 | 0.00 | 0.71 | 0.00 | 69 | 1012.8 | |
| 20260510153017 | 17 | 0.0 | 0.0 | 0.00 | 0.71 | 0.00 | 72 | 1012.9 | |
| 20260510152508 | 16 | 0.0 | 0.0 | 0.00 | 0.71 | 0.00 | 73 | 1013.0 | |
| 20260510152008 | 17 | 0.0 | 0.0 | 0.00 | 0.71 | 0.00 | 71 | 1013.0 | |
| 20260510151524 | 17 | 0.0 | 0.0 | 0.00 | 0.71 | 0.00 | 72 | 1013.0 | |
| 20260510151005 | 17 | 0.0 | 0.0 | 0.00 | 0.71 | 0.00 | 73 | 1012.9 | |
| 20260510150510 | 17 | 0.0 | 0.0 | 0.00 | 0.71 | 0.00 | 73 | 1012.9 | |
| 20260510150008 | 17 | 0.0 | 0.0 | 0.00 | 0.71 | 0.00 | 73 | 1012.9 | |
| 20260510145504 | 17 | 0.0 | 0.0 | 0.00 | 0.71 | 0.00 | 72 | 1012.8 | |
| 20260510145003 | 17 | 0.0 | 0.0 | 0.00 | 0.71 | 0.00 | 77 | 1012.8 | |
| 20260510144511 | 16 | 0.0 | 0.0 | 0.00 | 0.71 | 0.00 | 74 | 1012.7 | |
| 20260510144008 | 16 | 0.0 | 0.0 | 0.00 | 0.71 | 0.00 | 75 | 1012.7 | |
| 20260510143506 | 16 | 0.0 | 0.0 | 0.00 | 0.71 | 0.00 | 76 | 1012.6 | |
| 20260510143030 | 16 | 0.0 | 0.0 | 0.00 | 0.71 | 0.00 | 76 | 1012.7 | |
| 20260510142503 | 16 | 0.0 | 0.0 | 0.00 | 0.71 | 0.00 | 77 | 1012.6 | |
| 20260510142007 | 15 | 0.0 | 0.0 | 0.00 | 0.71 | 0.00 | 79 | 1012.7 | |
| 20260510141523 | 15 | 0.0 | 0.0 | 0.00 | 0.71 | 0.00 | 77 | 1012.7 | |
| 20260510141008 | 15 | 0.0 | 0.0 | 0.00 | 0.71 | 0.00 | 79 | 1012.7 | |
| 20260510140507 | 15 | 0.0 | 0.0 | 0.00 | 0.71 | 0.00 | 82 | 1012.7 | |
| 20260510140022 | 13 | 0.0 | 0.0 | 0.00 | 0.71 | 0.00 | 81 | 1012.7 | |
| 20260510135508 | 13 | 0.0 | 0.0 | 0.00 | 0.71 | 0.00 | 83 | 1012.7 | |
| 20260510135006 | 13 | 0.0 | 0.0 | 0.00 | 0.71 | 0.00 | 83 | 1012.7 | |
| 20260510134510 | 13 | 0.0 | 0.0 | 0.00 | 0.71 | 0.00 | 84 | 1012.6 | |
| 20260510134002 | 13 | 0.0 | 0.0 | 0.00 | 0.71 | 0.00 | 85 | 1012.5 | |
| 20260510133510 | 12 | 0.0 | 0.0 | 0.00 | 0.71 | 0.00 | 85 | 1012.5 | |
| 20260510133014 | 12 | 0.0 | 0.0 | 0.00 | 0.71 | 0.00 | 85 | 1012.5 | |
| 20260510132509 | 12 | 0.0 | 0.0 | 0.00 | 0.71 | 0.00 | 86 | 1012.5 | |
| 20260510132007 | 12 | 0.0 | 0.0 | 0.00 | 0.74 | 0.00 | 86 | 1012.6 | |
| 20260510131524 | 12 | 0.0 | 0.0 | 0.00 | 0.74 | 0.00 | 88 | 1012.6 | |
| 20260510131009 | 11 | 0.0 | 0.0 | 0.00 | 0.74 | 0.00 | 86 | 1012.5 | |
| 20260510130507 | 11 | 0.0 | 0.0 | 0.00 | 0.74 | 0.00 | 86 | 1012.5 | |
| 20260510130023 | 11 | 0.0 | 0.0 | 0.00 | 0.74 | 0.00 | 87 | 1012.7 | |
| 20260510125507 | 11 | 0.0 | 0.0 | 0.00 | 0.74 | 0.00 | 87 | 1012.5 | |
| 20260510125010 | 11 | 0.0 | 0.0 | 0.00 | 0.74 | 0.00 | 86 | 1012.4 | |
| 20260510124532 | 11 | 0.0 | 0.0 | 0.00 | 0.74 | 0.00 | 87 | 1012.3 | |
| 20260510124011 | 11 | 0.0 | 0.0 | 0.00 | 0.74 | 0.00 | 87 | 1012.3 | |
| 20260510123502 | 11 | 0.0 | 0.0 | 0.00 | 0.74 | 0.00 | 87 | 1012.2 | |
| 20260510123010 | 11 | 0.0 | 0.0 | 0.00 | 0.74 | 0.00 | 88 | 1012.2 | |
| 20260510122503 | 11 | 0.0 | 0.0 | 0.00 | 0.74 | 0.00 | 87 | 1012.2 | |
| 20260510122006 | 11 | 0.0 | 0.0 | 0.00 | 0.74 | 0.00 | 87 | 1012.2 | |
| 20260510121519 | 11 | 0.0 | 0.0 | 0.00 | 0.74 | 0.00 | 88 | 1012.3 | |
| 20260510121007 | 11 | 0.0 | 0.0 | 0.00 | 0.74 | 0.00 | 90 | 1012.3 | |
| 20260510120508 | 10 | 0.0 | 0.0 | 0.00 | 0.74 | 0.00 | 90 | 1012.2 | |
| 20260510120023 | 10 | 0.0 | 0.0 | 0.00 | 0.74 | 0.00 | 91 | 1012.2 | |
| 20260510115506 | 10 | 0.0 | 0.0 | 0.00 | 0.74 | 0.00 | 91 | 1012.1 | |
| 20260510115013 | 10 | 0.0 | 0.0 | 0.00 | 0.74 | 0.00 | 91 | 1012.2 | |
| 20260510114526 | 10 | 0.0 | 0.0 | 0.00 | 0.74 | 0.00 | 91 | 1012.2 | |
| 20260510114010 | 10 | 0.0 | 0.0 | 0.00 | 0.74 | 0.00 | 91 | 1012.1 | |
| 20260510113507 | 10 | 0.0 | 0.0 | 0.00 | 0.74 | 0.00 | 91 | 1012.0 | |
| 20260510113026 | 10 | 0.0 | 0.0 | 0.00 | 0.74 | 0.00 | 91 | 1012.0 | |
| 20260510112505 | 10 | 0.0 | 0.0 | 0.00 | 0.74 | 0.00 | 91 | 1011.8 | |
| 20260510112006 | 10 | 0.0 | 0.0 | 0.00 | 0.74 | 0.00 | 91 | 1011.8 | |
| 20260510111516 | 10 | 0.0 | 0.0 | 0.00 | 0.74 | 0.00 | 91 | 1011.7 | |
| 20260510111004 | 10 | 0.0 | 0.0 | 0.00 | 0.74 | 0.00 | 91 | 1011.8 | |
| 20260510110508 | 10 | 0.0 | 0.0 | 0.00 | 0.74 | 0.00 | 91 | 1011.9 | |
| 20260510110026 | 10 | 0.0 | 0.0 | 0.00 | 0.74 | 0.00 | 91 | 1011.9 | |
| 20260510105505 | 10 | 0.0 | 0.0 | 0.00 | 0.74 | 0.00 | 91 | 1011.7 | |
| 20260510105008 | 10 | 0.0 | 0.0 | 0.00 | 0.74 | 0.00 | 91 | 1011.6 | |
| 20260510104523 | 10 | 0.0 | 0.0 | 0.00 | 0.74 | 0.00 | 91 | 1011.7 | |
| 20260510104008 | 10 | 0.0 | 0.0 | 0.00 | 0.74 | 0.00 | 91 | 1011.6 | |
| 20260510103512 | 10 | 0.0 | 0.0 | 0.00 | 0.74 | 0.00 | 91 | 1011.6 | |
| 20260510103029 | 10 | 0.0 | 0.0 | 0.00 | 0.74 | 0.00 | 91 | 1011.6 | |
| 20260510102509 | 10 | 0.0 | 0.0 | 0.00 | 0.74 | 0.00 | 91 | 1011.5 | |
| 20260510102010 | 10 | 0.0 | 0.0 | 0.00 | 0.74 | 0.00 | 91 | 1011.4 | |
| 20260510101526 | 10 | 0.0 | 0.0 | 0.00 | 0.74 | 0.00 | 91 | 1011.4 | |
| 20260510101007 | 10 | 0.0 | 0.0 | 0.00 | 0.74 | 0.00 | 91 | 1011.4 | |
| 20260510100506 | 10 | 0.0 | 0.0 | 0.00 | 0.74 | 0.00 | 90 | 1011.5 | |
| 20260510100030 | 10 | 0.0 | 0.0 | 0.00 | 0.76 | 0.00 | 90 | 1011.3 | |
| 20260510095507 | 10 | 0.0 | 0.0 | 0.00 | 0.76 | 0.00 | 90 | 1011.1 | |
| 20260510095007 | 10 | 0.0 | 0.0 | 0.00 | 0.76 | 0.00 | 90 | 1011.0 | |
| 20260510094531 | 10 | 0.0 | 0.0 | 0.00 | 0.76 | 0.00 | 90 | 1011.0 | |
| 20260510094008 | 10 | 0.0 | 0.0 | 0.00 | 0.76 | 0.00 | 90 | 1011.0 | |
| 20260510093507 | 10 | 0.0 | 0.0 | 0.00 | 0.76 | 0.00 | 90 | 1011.0 | |
| 20260510093024 | 10 | 0.0 | 0.0 | 0.00 | 0.76 | 0.00 | 90 | 1011.4 | |
| 20260510092511 | 10 | 0.0 | 0.0 | 0.00 | 0.76 | 0.00 | 90 | 1011.3 | |
| 20260510092014 | 10 | 0.0 | 0.0 | 0.00 | 0.76 | 0.00 | 90 | 1011.4 | |
| 20260510091526 | 10 | 0.0 | 0.0 | 0.00 | 0.76 | 0.00 | 90 | 1011.3 | |
| 20260510091006 | 10 | 0.0 | 0.0 | 0.00 | 0.76 | 0.00 | 90 | 1011.3 | |
| 20260510090507 | 10 | 0.0 | 0.0 | 0.00 | 0.76 | 0.00 | 90 | 1011.4 | |
| 20260510090023 | 10 | 0.0 | 0.0 | 0.00 | 0.79 | 0.00 | 90 | 1011.2 | |
| 20260510085507 | 10 | 0.0 | 0.0 | 0.00 | 0.79 | 0.00 | 90 | 1011.2 | |
| 20260510085007 | 10 | 0.0 | 0.0 | 0.00 | 0.79 | 0.00 | 90 | 1011.3 | |
| 20260510084523 | 10 | 0.0 | 0.0 | 0.00 | 0.79 | 0.00 | 90 | 1011.4 | |
| 20260510084007 | 10 | 0.0 | 0.0 | 0.00 | 0.79 | 0.00 | 90 | 1011.6 | |
| 20260510083508 | 9 | 0.0 | 0.0 | 0.00 | 0.79 | 0.00 | 90 | 1011.6 | |
| 20260510083029 | 9 | 0.0 | 0.0 | 0.00 | 0.81 | 0.00 | 90 | 1011.6 | |
| 20260510082508 | 9 | 0.0 | 0.0 | 0.00 | 0.81 | 0.00 | 90 | 1011.6 | |
| 20260510082004 | 10 | 0.0 | 0.0 | 0.00 | 0.84 | 0.00 | 90 | 1011.5 | |
| 20260510081508 | 9 | 0.0 | 0.0 | 0.00 | 0.84 | 0.00 | 90 | 1011.4 | |
| 20260510081004 | 10 | 0.0 | 0.0 | 0.00 | 0.86 | 0.00 | 90 | 1011.4 | |
| 20260510080504 | 10 | 0.0 | 0.0 | 0.00 | 0.86 | 0.00 | 90 | 1011.5 | |
| 20260510080024 | 10 | 0.0 | 0.0 | 0.00 | 0.86 | 0.00 | 90 | 1011.5 | |
| 20260510075506 | 10 | 0.0 | 0.0 | 0.00 | 0.86 | 0.00 | 90 | 1011.6 | |
| 20260510075004 | 10 | 0.0 | 0.0 | 0.00 | 0.86 | 0.00 | 90 | 1011.6 | |
| 20260510074519 | 10 | 0.0 | 0.0 | 0.00 | 0.86 | 0.00 | 90 | 1011.6 | |
| 20260510074006 | 10 | 0.0 | 0.0 | 0.00 | 0.86 | 0.00 | 90 | 1011.6 | |
| 20260510073507 | 10 | 0.0 | 0.0 | 0.00 | 0.86 | 0.00 | 90 | 1011.6 | |
| 20260510073004 | 10 | 0.0 | 0.0 | 0.00 | 0.86 | 0.00 | 90 | 1011.4 | |
| 20260510072507 | 10 | 0.0 | 0.0 | 0.00 | 0.86 | 0.00 | 90 | 1011.3 | |
| 20260510072004 | 10 | 0.0 | 0.0 | 0.00 | 0.86 | 0.00 | 90 | 1011.3 | |
| 20260510071510 | 10 | 0.0 | 0.0 | 0.00 | 0.86 | 0.00 | 90 | 1011.3 | |
| 20260510071004 | 10 | 0.0 | 0.0 | 0.00 | 0.86 | 0.00 | 90 | 1011.1 | |
| 20260510070502 | 10 | 0.0 | 0.0 | 0.00 | 0.86 | 0.00 | 90 | 1011.3 | |
| 20260510070014 | 10 | 0.0 | 0.0 | 0.00 | 0.86 | 0.00 | 90 | 1011.3 | |
| 20260510065504 | 10 | 0.0 | 0.0 | 0.00 | 0.86 | 0.00 | 90 | 1011.3 | |
| 20260510065004 | 10 | 0.0 | 0.0 | 0.00 | 0.86 | 0.00 | 90 | 1011.5 | |
| 20260510064520 | 10 | 0.0 | 0.0 | 0.00 | 0.86 | 0.00 | 90 | 1011.4 | |
| 20260510064006 | 10 | 0.0 | 0.0 | 0.00 | 0.86 | 0.00 | 90 | 1011.4 | |
| 20260510063506 | 10 | 0.0 | 0.0 | 0.00 | 0.86 | 0.00 | 90 | 1011.4 | |
| 20260510063020 | 10 | 0.0 | 0.0 | 0.00 | 0.86 | 0.00 | 90 | 1011.4 | |
| 20260510062508 | 10 | 0.0 | 0.0 | 0.00 | 0.86 | 0.00 | 90 | 1011.3 | |
| 20260510062004 | 10 | 0.0 | 0.0 | 0.00 | 0.86 | 0.00 | 90 | 1011.3 | |
| 20260510061505 | 10 | 0.0 | 0.0 | 0.00 | 0.86 | 0.00 | 90 | 1011.3 | |
| 20260510061004 | 10 | 0.0 | 0.0 | 0.00 | 0.86 | 0.00 | 90 | 1011.3 | |
| 20260510060504 | 10 | 0.0 | 0.0 | 0.00 | 0.86 | 0.00 | 90 | 1011.2 | |
| 20260510060009 | 10 | 0.0 | 0.0 | 0.00 | 0.86 | 0.00 | 90 | 1011.0 | |
| 20260510055504 | 10 | 0.0 | 0.0 | 0.00 | 0.86 | 0.00 | 90 | 1011.1 | |
| 20260510055004 | 10 | 0.0 | 0.0 | 0.00 | 0.86 | 0.00 | 90 | 1011.0 | |
| 20260510054516 | 10 | 0.0 | 0.0 | 0.00 | 0.86 | 0.00 | 90 | 1011.1 | |
| 20260510054008 | 10 | 0.0 | 0.0 | 0.00 | 0.86 | 0.00 | 90 | 1011.1 | |
| 20260510053507 | 10 | 0.0 | 0.0 | 0.00 | 0.86 | 0.00 | 90 | 1011.2 | |
| 20260510053025 | 10 | 0.0 | 0.0 | 0.00 | 0.86 | 0.00 | 90 | 1011.2 | |
| 20260510052506 | 10 | 0.0 | 0.0 | 0.00 | 0.86 | 0.00 | 90 | 1011.3 | |
| 20260510052008 | 10 | 0.0 | 0.0 | 0.00 | 0.86 | 0.00 | 90 | 1011.2 | |
| 20260510051522 | 10 | 0.0 | 0.0 | 0.00 | 0.86 | 0.00 | 90 | 1011.2 | |
| 20260510051007 | 10 | 0.0 | 0.0 | 0.00 | 0.86 | 0.00 | 90 | 1011.2 | |
| 20260510050503 | 10 | 0.0 | 0.0 | 0.00 | 0.86 | 0.00 | 90 | 1011.3 | |
| 20260510050011 | 10 | 0.0 | 0.0 | 0.00 | 0.86 | 0.00 | 90 | 1011.3 | |
| 20260510045506 | 10 | 0.0 | 0.0 | 0.00 | 0.86 | 0.00 | 90 | 1011.3 | |
| 20260510045006 | 10 | 0.0 | 0.0 | 0.00 | 0.86 | 0.00 | 90 | 1011.3 | |
| 20260510044526 | 10 | 0.0 | 0.0 | 0.00 | 0.86 | 0.00 | 90 | 1011.2 | |
| 20260510044002 | 10 | 0.0 | 0.0 | 0.00 | 0.86 | 0.00 | 90 | 1011.3 | |
| 20260510043506 | 10 | 0.0 | 0.0 | 0.00 | 0.86 | 0.00 | 90 | 1011.3 | |
| 20260510043020 | 10 | 0.0 | 0.0 | 0.00 | 0.86 | 0.00 | 90 | 1011.3 | |
| 20260510042503 | 10 | 0.0 | 0.0 | 0.00 | 0.86 | 0.00 | 90 | 1011.3 | |
| 20260510042006 | 10 | 0.0 | 0.0 | 0.00 | 0.86 | 0.00 | 90 | 1011.3 | |
| 20260510041520 | 10 | 0.0 | 0.0 | 0.00 | 0.86 | 0.00 | 90 | 1011.1 | |
| 20260510041006 | 10 | 0.0 | 0.0 | 0.00 | 0.86 | 0.00 | 90 | 1011.1 | |
| 20260510040507 | 10 | 0.0 | 0.0 | 0.00 | 0.86 | 0.00 | 90 | 1011.2 | |
| 20260510040026 | 10 | 0.0 | 0.0 | 0.00 | 0.86 | 0.00 | 90 | 1011.0 | |
| 20260510035502 | 10 | 0.0 | 0.0 | 0.00 | 0.86 | 0.86 | 90 | 1011.0 | |
| 20260510035004 | 10 | 0.0 | 0.0 | 0.00 | 0.86 | 0.86 | 90 | 1011.1 | |
| 20260510034512 | 10 | 0.0 | 0.0 | 0.00 | 0.86 | 0.86 | 90 | 1011.1 | |
| 20260510034006 | 10 | 0.0 | 0.0 | 0.00 | 0.86 | 0.86 | 90 | 1011.3 | |
| 20260510033503 | 10 | 0.0 | 0.0 | 0.00 | 0.86 | 0.86 | 90 | 1011.2 | |
| 20260510033014 | 10 | 0.0 | 0.0 | 0.00 | 0.86 | 0.86 | 90 | 1011.3 | |
| 20260510032508 | 10 | 0.0 | 0.0 | 0.00 | 0.86 | 0.86 | 1011.2 | ||
| 20260510032007 | 10 | 0.0 | 0.0 | 0.00 | 0.86 | 0.86 | 1011.3 | ||
| 20260510031521 | 10 | 0.0 | 0.0 | 0.00 | 0.86 | 0.86 | 90 | 1011.3 | |
| 20260510031008 | 10 | 0.0 | 0.0 | 0.00 | 0.86 | 0.86 | 90 | 1011.3 | |
| 20260510030506 | 10 | 0.0 | 0.0 | 0.00 | 0.86 | 0.86 | 90 | 1011.4 | |
| 20260510030023 | 10 | 0.0 | 0.0 | 0.00 | 0.86 | 0.86 | 90 | 1011.3 | |
| 20260510025506 | 10 | 0.0 | 0.0 | 0.00 | 0.86 | 0.86 | 90 | 1011.4 | |
| 20260510025009 | 10 | 0.0 | 0.0 | 0.00 | 0.86 | 0.86 | 90 | 1011.3 | |
| 20260510024527 | 10 | 0.0 | 0.0 | 0.00 | 0.86 | 0.86 | 90 | 1011.2 | |
| 20260510024003 | 10 | 0.0 | 0.0 | 0.00 | 0.86 | 0.86 | 90 | 1011.2 | |
| 20260510023506 | 10 | 0.0 | 0.0 | 0.00 | 0.86 | 0.86 | 90 | 1011.2 | |
| 20260510023012 | 10 | 0.0 | 0.0 | 0.00 | 0.86 | 0.86 | 90 | 1011.1 | |
| 20260510022510 | 10 | 0.0 | 0.0 | 0.00 | 0.86 | 0.86 | 90 | 1011.0 | |
| 20260510022007 | 10 | 0.0 | 0.0 | 0.00 | 0.86 | 0.86 | 90 | 1011.1 | |
| 20260510021520 | 10 | 0.0 | 0.0 | 0.00 | 0.86 | 0.86 | 90 | 1011.1 | |
| 20260510021005 | 10 | 0.0 | 0.0 | 0.00 | 0.86 | 0.86 | 90 | 1011.2 | |
| 20260510020509 | 10 | 0.0 | 0.0 | 0.00 | 0.86 | 0.86 | 90 | 1011.3 | |
| 20260510020022 | 10 | 0.0 | 0.0 | 0.00 | 0.86 | 0.86 | 90 | 1011.3 | |
| 20260510015507 | 10 | 0.0 | 0.0 | 0.00 | 0.86 | 0.86 | 1011.3 | ||
| 20260510015006 | 10 | 0.0 | 0.0 | 0.00 | 0.86 | 0.86 | 90 | 1011.3 | |
| 20260510014523 | 10 | 0.0 | 0.0 | 0.00 | 0.86 | 0.86 | 90 | 1011.4 | |
| 20260510014008 | 10 | 0.0 | 0.0 | 0.00 | 0.86 | 0.86 | 90 | 1011.5 | |
| 20260510013509 | 10 | 0.0 | 0.0 | 0.00 | 0.86 | 0.86 | 90 | 1011.2 | |
| 20260510013010 | 10 | 0.0 | 0.0 | 0.00 | 0.86 | 0.86 | 90 | 1011.2 | |
| 20260510012503 | 10 | 0.0 | 0.0 | 0.00 | 0.86 | 0.86 | 90 | 1011.2 | |
| 20260510012007 | 10 | 0.0 | 0.0 | 0.00 | 0.86 | 0.86 | 90 | 1011.2 | |
| 20260510011532 | 10 | 0.0 | 0.0 | 0.00 | 0.86 | 0.86 | 90 | 1011.1 | |
| 20260510011006 | 10 | 0.0 | 0.0 | 0.00 | 0.86 | 0.86 | 90 | 1011.0 | |
| 20260510010506 | 10 | 0.0 | 0.0 | 0.00 | 0.86 | 0.86 | 90 | 1010.9 | |
| 20260510010020 | 10 | 0.0 | 0.0 | 0.00 | 0.86 | 0.86 | 90 | 1010.8 | |
| 20260510005507 | 10 | 0.0 | 0.0 | 0.00 | 0.86 | 0.86 | 1010.7 | ||
| 20260510005006 | 10 | 0.0 | 0.0 | 0.00 | 0.86 | 0.86 | 1010.7 | ||
| 20260510004504 | 10 | 0.0 | 0.0 | 0.00 | 0.86 | 0.86 | 90 | 1010.7 | |
| 20260510004005 | 10 | 0.0 | 0.0 | 0.00 | 0.86 | 0.86 | 90 | 1010.7 | |
| 20260510003503 | 10 | 0.0 | 0.0 | 0.00 | 0.86 | 0.86 | 90 | 1010.6 | |
| 20260510003007 | 10 | 0.0 | 0.0 | 0.00 | 0.86 | 0.86 | 90 | 1010.5 | |
| 20260510002502 | 10 | 0.0 | 0.0 | 0.00 | 0.86 | 0.86 | 90 | 1010.5 | |
| 20260510002006 | 11 | 0.0 | 0.0 | 0.00 | 0.86 | 0.86 | 90 | 1010.4 | |
| 20260510001510 | 11 | 0.0 | 0.0 | 0.00 | 0.86 | 0.86 | 90 | 1010.5 | |
| 20260510001006 | 11 | 0.0 | 0.0 | 0.00 | 0.86 | 0.86 | 90 | 1010.3 | |
| 20260510000503 | 11 | 0.0 | 0.0 | 0.00 | 0.86 | 0.86 | 90 | 1010.3 | |
| 20260510000018 | 11 | 0.0 | 0.0 | 0.00 | 0.86 | 0.86 | 90 | 1010.4 | |
| 20260509235503 | 11 | 0.0 | 0.0 | 0.00 | 0.86 | 0.86 | 90 | 1010.3 | |
| 20260509235006 | 11 | 0.0 | 0.0 | 0.00 | 0.86 | 0.86 | 90 | 1010.4 | |
| 20260509234527 | 11 | 0.0 | 0.0 | 0.00 | 0.86 | 0.86 | 90 | 1010.2 | |
| 20260509234008 | 11 | 0.0 | 0.0 | 0.00 | 0.86 | 0.86 | 90 | 1010.3 | |
| 20260509233507 | 11 | 0.0 | 0.0 | 0.00 | 0.86 | 0.86 | 90 | 1010.2 | |
| 20260509233007 | 11 | 0.0 | 0.0 | 0.00 | 0.86 | 0.86 | 90 | 1010.1 | |
| 20260509232503 | 11 | 0.0 | 0.0 | 0.00 | 0.86 | 0.86 | 90 | 1010.2 | |
| 20260509232004 | 11 | 0.0 | 0.0 | 0.00 | 0.86 | 0.86 | 90 | 1010.2 | |
| 20260509231512 | 11 | 0.0 | 0.0 | 0.00 | 0.86 | 0.86 | 89 | 1010.3 | |
| 20260509231005 | 11 | 0.0 | 0.0 | 0.03 | 0.86 | 0.86 | 89 | 1010.4 | |
| 20260509230506 | 11 | 0.0 | 0.0 | 0.03 | 0.86 | 0.86 | 89 | 1010.4 | |
| 20260509230016 | 11 | 0.0 | 0.0 | 0.03 | 0.86 | 0.86 | 89 | 1010.6 | |
| 20260509225504 | 11 | 0.0 | 0.0 | 0.08 | 0.86 | 0.86 | 89 | 1010.6 | |
| 20260509225004 | 11 | 0.0 | 0.0 | 0.10 | 0.86 | 0.86 | 90 | 1010.6 | |
| 20260509224521 | 11 | 0.0 | 0.0 | 0.13 | 0.86 | 0.86 | 90 | 1010.6 | |
| 20260509224007 | 11 | 0.0 | 0.0 | 0.15 | 0.86 | 0.86 | 90 | 1010.6 | |
| 20260509223506 | 11 | 0.0 | 0.0 | 0.15 | 0.86 | 0.86 | 90 | 1010.6 | |
| 20260509223023 | 11 | 0.0 | 0.0 | 0.18 | 0.86 | 0.86 | 90 | 1010.7 | |
| 20260509222509 | 11 | 0.0 | 0.0 | 0.18 | 0.86 | 0.86 | 90 | 1010.9 | |
| 20260509222002 | 11 | 0.0 | 0.0 | 0.20 | 0.86 | 0.86 | 90 | 1011.0 | |
| 20260509221508 | 11 | 0.0 | 0.0 | 0.20 | 0.86 | 0.86 | 90 | 1011.0 | |
| 20260509221004 | 11 | 0.0 | 0.0 | 0.18 | 0.84 | 0.84 | 90 | 1011.0 | |
| 20260509220503 | 11 | 0.0 | 0.0 | 0.20 | 0.84 | 0.84 | 90 | 1011.0 | |
| 20260509220013 | 11 | 0.0 | 0.0 | 0.20 | 0.84 | 0.84 | 90 | 1010.9 | |
| 20260509215506 | 11 | 0.0 | 0.0 | 0.15 | 0.79 | 0.79 | 90 | 1011.0 | |
| 20260509215013 | 11 | 0.0 | 0.0 | 0.13 | 0.76 | 0.76 | 90 | 1011.2 | |
| 20260509214526 | 11 | 0.0 | 0.0 | 0.10 | 0.74 | 0.74 | 90 | 1011.2 | |
| 20260509214006 | 11 | 0.0 | 0.0 | 0.10 | 0.71 | 0.71 | 90 | 1011.3 | |
| 20260509213507 | 11 | 0.0 | 0.0 | 0.10 | 0.71 | 0.71 | 90 | 1011.2 | |
| 20260509213022 | 11 | 0.0 | 0.0 | 0.08 | 0.69 | 0.69 | 90 | 1011.2 | |
| 20260509212507 | 11 | 0.0 | 0.0 | 0.10 | 0.69 | 0.69 | 90 | 1011.1 | |
| 20260509212007 | 11 | 0.0 | 0.0 | 0.08 | 0.66 | 0.66 | 90 | 1011.0 | |
| 20260509211524 | 11 | 0.0 | 0.0 | 0.10 | 0.66 | 0.66 | 90 | 1010.9 | |
| 20260509211004 | 11 | 0.0 | 0.0 | 0.13 | 0.66 | 0.66 | 90 | 1010.9 | |
| 20260509210504 | 11 | 0.0 | 0.0 | 0.13 | 0.64 | 0.64 | 90 | 1010.9 | |
| 20260509210012 | 11 | 0.0 | 0.0 | 0.15 | 0.64 | 0.64 | 90 | 1010.9 | |
| 20260509205504 | 11 | 0.0 | 0.0 | 0.18 | 0.64 | 0.64 | 90 | 1011.0 | |
| 20260509205003 | 11 | 0.0 | 0.0 | 0.23 | 0.64 | 0.64 | 90 | 1011.0 | |
| 20260509204523 | 11 | 0.0 | 0.0 | 0.25 | 0.64 | 0.64 | 90 | 1011.1 | |
| 20260509204007 | 11 | 0.0 | 0.0 | 0.23 | 0.61 | 0.61 | 90 | 1011.2 |